nws-alerts: Checking more than four warning/county codes can delay the loading of your pages. You should use a cron job to get the data.
EllijayWeather Station Historical Data
Daily Summary for October 8, 2018 Units:  English    Metric   Both
Daily Weekly Monthly Yearly Custom
  High: Low: Average:
Temperature: 81.3 °F 66.6 °F 73.2 °F
Dew Point: 70.5 °F 53.2 °F 62.7 °F
Humidity: 78% 59% 70%
Wind Speed: 4mph 0mph 0.2mph
Wind Gust: 6mph - -
Wind- - SE
Pressure: 30.22 in 30.13 in -
Precipitation: 0 in    
Historical Graphs
 
 
Tabular Data for October 8, 2018
Time Temperature Dew Point Pressure Wind Wind Speed Wind Gust Humidity Rainfall Rate (Hourly) solar
00:04 67.6 °F 55.9 °F 30.19 in Calm     66% 0 in meteobridge W/m2
00:09 67.6 °F 55.9 °F 30.19 in Calm     66% 0 in meteobridge W/m2
00:14 67.6 °F 55.9 °F 30.19 in Calm     66% 0 in meteobridge W/m2
00:19 67.5 °F 55.8 °F 30.19 in Calm     66% 0 in meteobridge W/m2
00:24 67.5 °F 55.8 °F 30.19 in Calm     66% 0 in meteobridge W/m2
00:29 67.5 °F 55.8 °F 30.19 in Calm     66% 0 in meteobridge W/m2
00:34 67.5 °F 55.8 °F 30.19 in Calm     66% 0 in meteobridge W/m2
00:39 67.5 °F 55.2 °F 30.19 in Calm     65% 0 in meteobridge W/m2
00:44 67.3 °F 55 °F 30.19 in Calm     65% 0 in meteobridge W/m2
00:49 67.3 °F 55 °F 30.19 in Calm     65% 0 in meteobridge W/m2
00:54 67.3 °F 55 °F 30.19 in Calm     65% 0 in meteobridge W/m2
00:59 67.1 °F 54.9 °F 30.19 in Calm     65% 0 in meteobridge W/m2
01:04 66.9 °F 54.9 °F 30.19 in Calm     65% 0 in meteobridge W/m2
01:09 66.9 °F 54.9 °F 30.19 in Calm     65% 0 in meteobridge W/m2
01:14 66.9 °F 54.9 °F 30.19 in Calm     65% 0 in meteobridge W/m2
01:19 66.9 °F 54.9 °F 30.19 in Calm     65% 0 in meteobridge W/m2
01:24 66.9 °F 54.9 °F 30.19 in Calm     65% 0 in meteobridge W/m2
01:29 66.9 °F 54.9 °F 30.20 in Calm     65% 0 in meteobridge W/m2
01:34 66.9 °F 54.9 °F 30.20 in Calm     65% 0 in meteobridge W/m2
01:39 66.7 °F 54.7 °F 30.20 in Calm     65% 0 in meteobridge W/m2
01:44 66.7 °F 54.7 °F 30.20 in Calm     65% 0 in meteobridge W/m2
01:49 66.7 °F 54.7 °F 30.20 in Calm     65% 0 in meteobridge W/m2
01:54 66.7 °F 54.7 °F 30.20 in Calm     65% 0 in meteobridge W/m2
01:59 66.7 °F 54.1 °F 30.20 in Calm     64% 0 in meteobridge W/m2
02:04 66.7 °F 54.1 °F 30.20 in Calm     64% 0 in meteobridge W/m2
02:09 66.7 °F 54.1 °F 30.20 in Calm     64% 0 in meteobridge W/m2
02:14 66.7 °F 54.1 °F 30.19 in Calm     64% 0 in meteobridge W/m2
02:19 66.7 °F 54.1 °F 30.19 in Calm     64% 0 in meteobridge W/m2
02:24 66.7 °F 54.1 °F 30.19 in Calm     64% 0 in meteobridge W/m2
02:29 66.7 °F 54.1 °F 30.20 in Calm     64% 0 in meteobridge W/m2
02:34 66.7 °F 54.1 °F 30.19 in Calm     64% 0 in meteobridge W/m2
02:39 66.7 °F 54.1 °F 30.19 in Calm     64% 0 in meteobridge W/m2
02:44 66.7 °F 54.1 °F 30.19 in Calm     64% 0 in meteobridge W/m2
02:49 66.7 °F 54.1 °F 30.19 in Calm     64% 0 in meteobridge W/m2
02:54 66.7 °F 54.1 °F 30.19 in Calm     64% 0 in meteobridge W/m2
02:59 66.7 °F 54.1 °F 30.19 in Calm     64% 0 in meteobridge W/m2
03:04 66.7 °F 54.1 °F 30.19 in Calm     64% 0 in meteobridge W/m2
03:09 66.6 °F 54 °F 30.19 in Calm     64% 0 in meteobridge W/m2
03:14 66.7 °F 53.8 °F 30.19 in Calm     63% 0 in meteobridge W/m2
03:19 66.7 °F 53.8 °F 30.19 in Calm     63% 0 in meteobridge W/m2
03:24 66.7 °F 53.8 °F 30.19 in Calm     63% 0 in meteobridge W/m2
03:29 66.7 °F 53.8 °F 30.18 in Calm     63% 0 in meteobridge W/m2
03:34 66.7 °F 53.8 °F 30.18 in Calm     63% 0 in meteobridge W/m2
03:39 66.7 °F 53.8 °F 30.18 in Calm     63% 0 in meteobridge W/m2
03:44 66.7 °F 53.8 °F 30.17 in Calm     63% 0 in meteobridge W/m2
03:49 66.9 °F 54 °F 30.17 in Calm     63% 0 in meteobridge W/m2
03:54 66.9 °F 54 °F 30.17 in Calm     63% 0 in meteobridge W/m2
03:59 66.9 °F 54 °F 30.17 in Calm     63% 0 in meteobridge W/m2
04:04 66.9 °F 54 °F 30.18 in Calm     63% 0 in meteobridge W/m2
04:09 66.9 °F 54 °F 30.18 in Calm     63% 0 in meteobridge W/m2
04:14 66.9 °F 54 °F 30.18 in Calm     63% 0 in meteobridge W/m2
04:19 66.9 °F 54 °F 30.18 in Calm     63% 0 in meteobridge W/m2
04:24 66.9 °F 54 °F 30.18 in Calm     63% 0 in meteobridge W/m2
04:29 66.9 °F 54 °F 30.17 in Calm     63% 0 in meteobridge W/m2
04:34 66.7 °F 53.8 °F 30.17 in Calm     63% 0 in meteobridge W/m2
04:39 66.7 °F 53.8 °F 30.18 in Calm     63% 0 in meteobridge W/m2
04:44 66.7 °F 53.8 °F 30.17 in Calm     63% 0 in meteobridge W/m2
04:49 66.7 °F 53.8 °F 30.17 in Calm     63% 0 in meteobridge W/m2
04:54 66.7 °F 53.2 °F 30.17 in Calm     62% 0 in meteobridge W/m2
04:59 66.7 °F 53.2 °F 30.17 in Calm     62% 0 in meteobridge W/m2
05:04 66.7 °F 53.2 °F 30.17 in Calm     62% 0 in meteobridge W/m2
05:09 66.7 °F 53.2 °F 30.17 in Calm     62% 0 in meteobridge W/m2
05:14 66.7 °F 53.2 °F 30.17 in Calm     62% 0 in meteobridge W/m2
05:19 66.7 °F 53.2 °F 30.17 in Calm     62% 0 in meteobridge W/m2
05:24 66.7 °F 53.2 °F 30.17 in Calm     62% 0 in meteobridge W/m2
05:29 66.7 °F 53.2 °F 30.17 in Calm     62% 0 in meteobridge W/m2
05:34 66.9 °F 53.4 °F 30.17 in Calm     62% 0 in meteobridge W/m2
05:39 66.9 °F 53.4 °F 30.17 in Calm     62% 0 in meteobridge W/m2
05:44 67.3 °F 53.8 °F 30.17 in Calm     62% 0 in meteobridge W/m2
05:49 67.3 °F 53.8 °F 30.17 in Calm     62% 0 in meteobridge W/m2
05:54 67.5 °F 53.6 °F 30.17 in Calm     61% 0 in meteobridge W/m2
05:59 67.6 °F 53.8 °F 30.17 in Calm     61% 0 in meteobridge W/m2
06:04 67.6 °F 53.8 °F 30.17 in Calm     61% 0 in meteobridge W/m2
06:09 67.8 °F 54 °F 30.18 in Calm     61% 0 in meteobridge W/m2
06:14 67.8 °F 54 °F 30.17 in Calm     61% 0 in meteobridge W/m2
06:19 67.8 °F 54 °F 30.17 in Calm     61% 0 in meteobridge W/m2
06:24 68.2 °F 54.1 °F 30.17 in Calm     61% 0 in meteobridge W/m2
06:29 68.4 °F 54 °F 30.18 in Calm     60% 0 in meteobridge W/m2
06:34 68.5 °F 54.1 °F 30.18 in Calm     60% 0 in meteobridge W/m2
06:39 68.5 °F 54.1 °F 30.18 in Calm     60% 0 in meteobridge W/m2
06:44 68.5 °F 54.1 °F 30.18 in Calm     60% 0 in meteobridge W/m2
06:49 68.7 °F 54.3 °F 30.18 in Calm     60% 0 in meteobridge W/m2
06:54 68.7 °F 54.3 °F 30.18 in Calm     60% 0 in meteobridge W/m2
06:59 68.7 °F 54.3 °F 30.18 in Calm     60% 0 in meteobridge W/m2
07:04 68.7 °F 54.3 °F 30.18 in Calm     60% 0 in meteobridge W/m2
07:09 68.7 °F 54.3 °F 30.18 in Calm     60% 0 in meteobridge W/m2
07:14 68.5 °F 54.1 °F 30.18 in Calm     60% 0 in meteobridge W/m2
07:19 68.5 °F 54.1 °F 30.19 in Calm     60% 0 in meteobridge W/m2
07:24 68.5 °F 54.1 °F 30.18 in Calm     60% 0 in meteobridge W/m2
07:29 68.5 °F 54.1 °F 30.18 in Calm     60% 0 in meteobridge W/m2
07:34 68.5 °F 54.1 °F 30.19 in Calm     60% 0 in meteobridge W/m2
07:39 68.5 °F 54.1 °F 30.19 in Calm     60% 0 in meteobridge W/m2
07:44 68.7 °F 54.3 °F 30.19 in Calm     60% 0 in meteobridge W/m2
07:49 69.1 °F 54.7 °F 30.19 in Calm     60% 0 in meteobridge W/m2
07:54 69.6 °F 54.7 °F 30.19 in Calm     59% 0 in meteobridge W/m2
07:59 69.8 °F 54.9 °F 30.19 in Calm     59% 0 in meteobridge W/m2
08:04 70 °F 55 °F 30.19 in Calm     59% 0 in meteobridge W/m2
08:09 70.2 °F 55.2 °F 30.19 in Calm   1 mph 59% 0 in meteobridge W/m2
08:14 70.3 °F 55.8 °F 30.19 in Calm   1 mph 60% 0 in meteobridge W/m2
08:19 70.5 °F 55.9 °F 30.19 in Calm     60% 0 in meteobridge W/m2
08:24 70.7 °F 56.1 °F 30.20 in Calm     60% 0 in meteobridge W/m2
08:29 70.9 °F 56.3 °F 30.20 in Calm   1 mph 60% 0 in meteobridge W/m2
08:34 71.1 °F 56.8 °F 30.20 in Calm   1 mph 61% 0 in meteobridge W/m2
08:39 71.2 °F 57.6 °F 30.20 in Calm     62% 0 in meteobridge W/m2
08:44 71.4 °F 58.1 °F 30.20 in Calm   5 mph 63% 0 in meteobridge W/m2
08:49 71.8 °F 59.4 °F 30.20 in Calm   1 mph 65% 0 in meteobridge W/m2
08:54 72 °F 59.9 °F 30.20 in Calm     66% 0 in meteobridge W/m2
08:59 72 °F 60.4 °F 30.20 in Calm     67% 0 in meteobridge W/m2
09:04 72.1 °F 61 °F 30.20 in Calm     68% 0 in meteobridge W/m2
09:09 72.3 °F 61.2 °F 30.20 in Calm     68% 0 in meteobridge W/m2
09:14 72.5 °F 61.7 °F 30.21 in Calm     69% 0 in meteobridge W/m2
09:19 72.7 °F 62.2 °F 30.21 in Calm     70% 0 in meteobridge W/m2
09:24 72.7 °F 62.2 °F 30.21 in Calm     70% 0 in meteobridge W/m2
09:29 72.7 °F 62.8 °F 30.21 in Calm     71% 0 in meteobridge W/m2
09:34 72.9 °F 63.3 °F 30.21 in Calm     72% 0 in meteobridge W/m2
09:39 72.9 °F 63.7 °F 30.21 in Calm     73% 0 in meteobridge W/m2
09:44 73 °F 63.5 °F 30.21 in Calm     72% 0 in meteobridge W/m2
09:49 73 °F 63.9 °F 30.21 in SE 0.9 mph 1 mph 73% 0 in meteobridge W/m2
09:54 73.2 °F 64.4 °F 30.21 in Calm   1 mph 74% 0 in meteobridge W/m2
09:59 73.4 °F 64.9 °F 30.21 in Calm     75% 0 in meteobridge W/m2
10:04 73.8 °F 65.3 °F 30.21 in Calm   1 mph 75% 0 in meteobridge W/m2
10:09 73.9 °F 65.8 °F 30.22 in Calm     76% 0 in meteobridge W/m2
10:14 74.3 °F 66.6 °F 30.21 in Calm   1 mph 77% 0 in meteobridge W/m2
10:19 74.8 °F 67.1 °F 30.21 in Calm   1 mph 77% 0 in meteobridge W/m2
10:24 75.2 °F 67.8 °F 30.22 in ESE 0.9 mph 1 mph 78% 0 in meteobridge W/m2
10:29 75.4 °F 68 °F 30.22 in Calm   1 mph 78% 0 in meteobridge W/m2
10:34 75.6 °F 68.2 °F 30.22 in Calm   1 mph 78% 0 in meteobridge W/m2
10:39 75.6 °F 68.2 °F 30.22 in Calm     78% 0 in meteobridge W/m2
10:44 75.7 °F 68.4 °F 30.22 in Calm     78% 0 in meteobridge W/m2
10:49 75.7 °F 68.4 °F 30.22 in Calm   6 mph 78% 0 in meteobridge W/m2
10:54 75.9 °F 68.5 °F 30.22 in SE 2 mph 4 mph 78% 0 in meteobridge W/m2
10:59 75.9 °F 68.2 °F 30.22 in Calm   4 mph 77% 0 in meteobridge W/m2
11:04 76.6 °F 68.9 °F 30.22 in ESE 0.9 mph 1 mph 77% 0 in meteobridge W/m2
11:09 77 °F 69.3 °F 30.22 in Calm   1 mph 77% 0 in meteobridge W/m2
11:14 77.2 °F 69.1 °F 30.22 in Calm     76% 0 in meteobridge W/m2
11:19 77 °F 69.3 °F 30.22 in Calm   1 mph 77% 0 in meteobridge W/m2
11:24 76.8 °F 69.1 °F 30.22 in SE 0.9 mph 2 mph 77% 0 in meteobridge W/m2
11:29 77 °F 68.9 °F 30.22 in SSW 0.9 mph 6 mph 76% 0 in meteobridge W/m2
11:34 77.4 °F 69.3 °F 30.22 in SE 2 mph 6 mph 76% 0 in meteobridge W/m2
11:39 77.2 °F 69.1 °F 30.22 in SE 0.9 mph 2 mph 76% 0 in meteobridge W/m2
11:44 77 °F 68.9 °F 30.22 in Calm     76% 0 in meteobridge W/m2
11:49 76.6 °F 68.9 °F 30.22 in Calm     77% 0 in meteobridge W/m2
11:54 76.5 °F 68.7 °F 30.21 in Calm   2 mph 77% 0 in meteobridge W/m2
11:59 76.3 °F 68.5 °F 30.21 in Calm     77% 0 in meteobridge W/m2
12:04 76.3 °F 68.5 °F 30.21 in Calm     77% 0 in meteobridge W/m2
12:09 76.5 °F 68.7 °F 30.21 in Calm   2 mph 77% 0 in meteobridge W/m2
12:14 76.6 °F 68.9 °F 30.21 in Calm   1 mph 77% 0 in meteobridge W/m2
12:19 77 °F 69.3 °F 30.21 in Calm     77% 0 in meteobridge W/m2
12:24 77.2 °F 69.1 °F 30.21 in Calm   4 mph 76% 0 in meteobridge W/m2
12:29 77.2 °F 69.1 °F 30.21 in Calm   1 mph 76% 0 in meteobridge W/m2
12:34 77.2 °F 69.1 °F 30.21 in Calm     76% 0 in meteobridge W/m2
12:39 77.5 °F 69.8 °F 30.20 in SE 4 mph 4 mph 77% 0 in meteobridge W/m2
12:44 78.1 °F 69.4 °F 30.20 in Calm   2 mph 75% 0 in meteobridge W/m2
12:49 78.4 °F 69.8 °F 30.20 in SSE 0.9 mph 1 mph 75% 0 in meteobridge W/m2
12:54 78.8 °F 69.8 °F 30.20 in Calm   2 mph 74% 0 in meteobridge W/m2
12:59 79.2 °F 69.8 °F 30.20 in Calm   1 mph 73% 0 in meteobridge W/m2
13:04 79.2 °F 69.8 °F 30.20 in East 0.9 mph 4 mph 73% 0 in meteobridge W/m2
13:09 79.2 °F 69.8 °F 30.19 in ESE 0.9 mph 2 mph 73% 0 in meteobridge W/m2
13:14 79.5 °F 70.2 °F 30.19 in ESE 2 mph 4 mph 73% 0 in meteobridge W/m2
13:19 79.9 °F 70 °F 30.19 in Calm   4 mph 72% 0 in meteobridge W/m2
13:24 80.1 °F 70.2 °F 30.19 in Calm   4 mph 72% 0 in meteobridge W/m2
13:29 79.9 °F 70 °F 30.19 in Calm   1 mph 72% 0 in meteobridge W/m2
13:34 79.7 °F 70.3 °F 30.19 in SE 0.9 mph 1 mph 73% 0 in meteobridge W/m2
13:39 79.3 °F 70 °F 30.19 in Calm   1 mph 73% 0 in meteobridge W/m2
13:44 79.2 °F 69.8 °F 30.18 in Calm   4 mph 73% 0 in meteobridge W/m2
13:49 79.2 °F 69.8 °F 30.18 in Calm   4 mph 73% 0 in meteobridge W/m2
13:54 79.3 °F 70.3 °F 30.18 in Calm   1 mph 74% 0 in meteobridge W/m2
13:59 79.2 °F 70.2 °F 30.18 in ESE 4 mph 4 mph 74% 0 in meteobridge W/m2
14:04 79.3 °F 70 °F 30.17 in ESE 2 mph 5 mph 73% 0 in meteobridge W/m2
14:09 79.5 °F 70.5 °F 30.17 in SE 2 mph 5 mph 74% 0 in meteobridge W/m2
14:14 79.9 °F 70.5 °F 30.17 in SE 4 mph 5 mph 73% 0 in meteobridge W/m2
14:19 80.1 °F 70.2 °F 30.16 in Calm   6 mph 72% 0 in meteobridge W/m2
14:24 80.4 °F 70.2 °F 30.16 in Calm   4 mph 71% 0 in meteobridge W/m2
14:29 80.4 °F 69.8 °F 30.16 in ESE 0.9 mph 4 mph 70% 0 in meteobridge W/m2
14:34 80.4 °F 70.2 °F 30.16 in Calm   1 mph 71% 0 in meteobridge W/m2
14:39 80.4 °F 70.2 °F 30.16 in Calm   1 mph 71% 0 in meteobridge W/m2
14:44 80.1 °F 69.4 °F 30.16 in Calm   1 mph 70% 0 in meteobridge W/m2
14:49 80.1 °F 69.8 °F 30.16 in Calm     71% 0 in meteobridge W/m2
14:54 80.2 °F 70.3 °F 30.15 in Calm     72% 0 in meteobridge W/m2
14:59 80.6 °F 70 °F 30.15 in Calm   4 mph 70% 0 in meteobridge W/m2
15:04 80.8 °F 69.6 °F 30.16 in Calm   3 mph 69% 0 in meteobridge W/m2
15:09 80.8 °F 70.2 °F 30.16 in SE 2 mph 6 mph 70% 0 in meteobridge W/m2
15:14 81 °F 70.2 °F 30.15 in SE 4 mph 4 mph 70% 0 in meteobridge W/m2
15:19 81 °F 69.4 °F 30.15 in Calm   4 mph 68% 0 in meteobridge W/m2
15:24 81 °F 69.8 °F 30.15 in Calm   2 mph 69% 0 in meteobridge W/m2
15:29 81.1 °F 70 °F 30.15 in Calm     69% 0 in meteobridge W/m2
15:34 81.3 °F 70.2 °F 30.14 in Calm   5 mph 69% 0 in meteobridge W/m2
15:39 81.1 °F 69.6 °F 30.14 in SE 0.9 mph 4 mph 68% 0 in meteobridge W/m2
15:44 81 °F 69.8 °F 30.15 in Calm   4 mph 69% 0 in meteobridge W/m2
15:49 80.4 °F 69.3 °F 30.14 in Calm   1 mph 69% 0 in meteobridge W/m2
15:54 80.4 °F 69.8 °F 30.14 in Calm   1 mph 70% 0 in meteobridge W/m2
15:59 80.4 °F 70.2 °F 30.14 in Calm   4 mph 71% 0 in meteobridge W/m2
16:04 80.6 °F 70 °F 30.14 in Calm   1 mph 70% 0 in meteobridge W/m2
16:09 80.4 °F 69.3 °F 30.14 in Calm   4 mph 69% 0 in meteobridge W/m2
16:14 80.2 °F 69.1 °F 30.14 in Calm   1 mph 69% 0 in meteobridge W/m2
16:19 80.1 °F 68.9 °F 30.14 in Calm     69% 0 in meteobridge W/m2
16:24 79.9 °F 69.3 °F 30.14 in Calm   1 mph 70% 0 in meteobridge W/m2
16:29 79.7 °F 69.1 °F 30.14 in Calm     70% 0 in meteobridge W/m2
16:34 79.9 °F 69.6 °F 30.14 in Calm   4 mph 71% 0 in meteobridge W/m2
16:39 79.9 °F 69.6 °F 30.14 in Calm     71% 0 in meteobridge W/m2
16:44 79.9 °F 69.6 °F 30.13 in SSE 4 mph 4 mph 71% 0 in meteobridge W/m2
16:49 80.1 °F 69.4 °F 30.13 in Calm   5 mph 70% 0 in meteobridge W/m2
16:54 80.1 °F 69.4 °F 30.13 in Calm   1 mph 70% 0 in meteobridge W/m2
16:59 79.9 °F 69.6 °F 30.14 in SSE 0.9 mph 1 mph 71% 0 in meteobridge W/m2
17:04 79.7 °F 69.1 °F 30.14 in Calm   2 mph 70% 0 in meteobridge W/m2
17:09 79.5 °F 69.3 °F 30.13 in Calm   1 mph 71% 0 in meteobridge W/m2
17:14 79.3 °F 69.1 °F 30.13 in Calm   1 mph 71% 0 in meteobridge W/m2
17:19 79.3 °F 69.4 °F 30.13 in Calm     72% 0 in meteobridge W/m2
17:24 79.3 °F 69.4 °F 30.13 in Calm     72% 0 in meteobridge W/m2
17:29 79.2 °F 69.8 °F 30.14 in Calm     73% 0 in meteobridge W/m2
17:34 79.2 °F 69.8 °F 30.14 in Calm     73% 0 in meteobridge W/m2
17:39 79 °F 69.3 °F 30.14 in Calm     72% 0 in meteobridge W/m2
17:44 79 °F 69.6 °F 30.13 in Calm     73% 0 in meteobridge W/m2
17:49 79 °F 69.6 °F 30.14 in Calm     73% 0 in meteobridge W/m2
17:54 79 °F 70 °F 30.14 in Calm     74% 0 in meteobridge W/m2
17:59 78.8 °F 69.1 °F 30.13 in Calm     72% 0 in meteobridge W/m2
18:04 78.6 °F 69.3 °F 30.13 in Calm     73% 0 in meteobridge W/m2
18:09 78.4 °F 69.1 °F 30.14 in Calm     73% 0 in meteobridge W/m2
18:14 78.3 °F 69.3 °F 30.14 in Calm     74% 0 in meteobridge W/m2
18:19 78.1 °F 69.1 °F 30.14 in Calm     74% 0 in meteobridge W/m2
18:24 77.9 °F 68.9 °F 30.14 in Calm     74% 0 in meteobridge W/m2
18:29 77.7 °F 69.1 °F 30.13 in Calm     75% 0 in meteobridge W/m2
18:34 77.5 °F 68.9 °F 30.13 in Calm     75% 0 in meteobridge W/m2
18:39 77.4 °F 68.9 °F 30.14 in Calm     75% 0 in meteobridge W/m2
18:44 77.2 °F 69.1 °F 30.14 in Calm     76% 0 in meteobridge W/m2
18:49 77 °F 68.9 °F 30.14 in Calm     76% 0 in meteobridge W/m2
18:54 76.8 °F 68.7 °F 30.13 in Calm     76% 0 in meteobridge W/m2
18:59 76.6 °F 68.9 °F 30.14 in Calm     77% 0 in meteobridge W/m2
19:04 76.5 °F 68.7 °F 30.13 in Calm     77% 0 in meteobridge W/m2
19:09 76.3 °F 68.9 °F 30.14 in Calm     78% 0 in meteobridge W/m2
19:14 75.7 °F 68 °F 30.14 in Calm     77% 0 in meteobridge W/m2
19:19 75.4 °F 68 °F 30.13 in Calm     78% 0 in meteobridge W/m2
19:24 75 °F 67.3 °F 30.14 in Calm     77% 0 in meteobridge W/m2
19:29 74.8 °F 67.1 °F 30.14 in Calm     77% 0 in meteobridge W/m2
19:34 74.7 °F 66.9 °F 30.14 in Calm     77% 0 in meteobridge W/m2
19:39 74.7 °F 66.9 °F 30.14 in Calm     77% 0 in meteobridge W/m2
19:44 74.5 °F 66.7 °F 30.15 in Calm     77% 0 in meteobridge W/m2
19:49 74.5 °F 66.7 °F 30.15 in Calm     77% 0 in meteobridge W/m2
19:54 74.3 °F 66.6 °F 30.15 in Calm     77% 0 in meteobridge W/m2
19:59 74.1 °F 66.4 °F 30.15 in Calm     77% 0 in meteobridge W/m2
20:04 74.1 °F 66.4 °F 30.14 in Calm     77% 0 in meteobridge W/m2
20:09 74.1 °F 66.4 °F 30.14 in Calm     77% 0 in meteobridge W/m2
20:14 73.9 °F 66.2 °F 30.14 in Calm     77% 0 in meteobridge W/m2
20:19 73.9 °F 66.2 °F 30.15 in Calm     77% 0 in meteobridge W/m2
20:24 73.8 °F 66 °F 30.15 in Calm     77% 0 in meteobridge W/m2
20:29 73.8 °F 66 °F 30.15 in Calm     77% 0 in meteobridge W/m2
20:34 73.6 °F 65.5 °F 30.15 in Calm     76% 0 in meteobridge W/m2
20:39 73.4 °F 65.3 °F 30.15 in Calm     76% 0 in meteobridge W/m2
20:44 73.2 °F 65.1 °F 30.15 in Calm     76% 0 in meteobridge W/m2
20:49 73 °F 64.9 °F 30.15 in Calm     76% 0 in meteobridge W/m2
20:54 73 °F 64.6 °F 30.15 in Calm     75% 0 in meteobridge W/m2
20:59 72.9 °F 64.4 °F 30.15 in Calm     75% 0 in meteobridge W/m2
21:04 72.9 °F 64.4 °F 30.15 in Calm     75% 0 in meteobridge W/m2
21:09 72.9 °F 64.4 °F 30.15 in Calm     75% 0 in meteobridge W/m2
21:14 72.7 °F 64.2 °F 30.15 in Calm     75% 0 in meteobridge W/m2
21:19 72.7 °F 64.2 °F 30.15 in Calm     75% 0 in meteobridge W/m2
21:24 72.5 °F 64 °F 30.15 in Calm     75% 0 in meteobridge W/m2
21:29 72.5 °F 64 °F 30.15 in Calm     75% 0 in meteobridge W/m2
21:34 72.3 °F 63.5 °F 30.15 in Calm     74% 0 in meteobridge W/m2
21:39 72.1 °F 63.9 °F 30.15 in Calm     75% 0 in meteobridge W/m2
21:44 72.1 °F 63.9 °F 30.15 in Calm     75% 0 in meteobridge W/m2
21:49 72.1 °F 63.9 °F 30.16 in SSE 0.9 mph 2 mph 75% 0 in meteobridge W/m2
21:54 72.1 °F 64.2 °F 30.16 in Calm     76% 0 in meteobridge W/m2
21:59 72.1 °F 64.2 °F 30.16 in Calm     76% 0 in meteobridge W/m2
22:04 72.1 °F 64.6 °F 30.16 in Calm   1 mph 77% 0 in meteobridge W/m2
22:09 72.1 °F 64.6 °F 30.16 in Calm     77% 0 in meteobridge W/m2
22:14 72.3 °F 64.8 °F 30.16 in Calm     77% 0 in meteobridge W/m2
22:19 72.5 °F 64.9 °F 30.16 in Calm     77% 0 in meteobridge W/m2
22:24 72.7 °F 65.1 °F 30.16 in Calm     77% 0 in meteobridge W/m2
22:29 72.7 °F 65.1 °F 30.16 in Calm     77% 0 in meteobridge W/m2
22:34 72.7 °F 65.1 °F 30.16 in Calm   4 mph 77% 0 in meteobridge W/m2
22:39 72.7 °F 65.1 °F 30.16 in Calm   1 mph 77% 0 in meteobridge W/m2
22:44 73 °F 65.8 °F 30.16 in Calm   2 mph 78% 0 in meteobridge W/m2
22:49 73.2 °F 66 °F 30.16 in Calm   2 mph 78% 0 in meteobridge W/m2
22:54 73.6 °F 66.4 °F 30.16 in Calm   1 mph 78% 0 in meteobridge W/m2
22:59 73.8 °F 66.4 °F 30.16 in Calm     78% 0 in meteobridge W/m2
23:04 73.8 °F 66.4 °F 30.16 in Calm     78% 0 in meteobridge W/m2
23:09 73.6 °F 66.4 °F 30.16 in Calm     78% 0 in meteobridge W/m2
23:14 73.6 °F 66.4 °F 30.15 in Calm     78% 0 in meteobridge W/m2
23:19 73.6 °F 66.4 °F 30.15 in Calm     78% 0 in meteobridge W/m2
23:24 73.2 °F 65.7 °F 30.15 in Calm   1 mph 77% 0 in meteobridge W/m2
23:29 73.2 °F 65.7 °F 30.15 in Calm   1 mph 77% 0 in meteobridge W/m2
23:34 73.2 °F 65.7 °F 30.16 in Calm   1 mph 77% 0 in meteobridge W/m2
23:39 73.2 °F 65.7 °F 30.16 in SE 0.9 mph 4 mph 77% 0 in meteobridge W/m2
23:44 73.2 °F 65.7 °F 30.16 in Calm     77% 0 in meteobridge W/m2
23:49 73 °F 65.5 °F 30.16 in Calm   2 mph 77% 0 in meteobridge W/m2
23:54 73 °F 65.5 °F 30.16 in Calm   1 mph 77% 0 in meteobridge W/m2
23:59 73 °F 65.5 °F 30.16 in Calm   4 mph 77% 0 in meteobridge W/m2
EllijayWeather
Compliments of Weather Underground - 2.5 mb